STARLINK-3749 (52313 NORAD) Tracking and Keplerian Element Data

This shows tracking and keplerian element data for the satellite.

Feedback or suggestion? Click here.




ElementValue
Catalog52313
NameSTARLINK-3749
Epoch Orbit130
Epoch Day167.08334491
Epoch Year2022
RAAN100.6227
Inclination53.2164
Eccentricity0.000387
Argument of Perigee4.8689
Mean Anonmoly310.5691
Mean Motion15.73287985
Decay Rate-0.00052533
L11 52313U 22041BE 22167.08334491 -.00052533 00000+0 -37061-3 0 9992
L22 52313 53.2164 100.6227 0003870 4.8689 310.5691 15.73287985 1302

Live tracking and technical data element details for STARLINK-3749 (NORAD 52313). STARLINK-3749 can be tracked NOW for your location showing map with azimuth and elevation plus other details from your city location.

Track the satellite on the map from your city or location and see movement details for azimuth, elevation, latitude, longitude, range, height, and movement on the map or in text.







IsCatalogInMostPopularTable: catalog: 52313, numindb: 1
Update: records affected: 1



GetName: 52313 STARLINK-3749

Hit Count: updated at: Sat, 25 Jun 2022 04:36:19 GMT